{"data":{"norad_id":52501,"intl_designator":"2022-049BC","name":"STARLINK-3907","alt_names":[],"object_type":"PAYLOAD","status":"ACTIVE","operator":null,"country":"US","launch_date":"2022-05-06","launch_site_code":"AFETR","launch_vehicle":null,"mission":null,"orbit_class":"UNKNOWN","rcs_meters":null,"size_class":null,"mass_kg":null,"dimensions":null,"purposes":["comms"],"wikipedia_slug":null,"has_3d_model":false,"image_url":null,"decayed_at":null,"tle_current":{"epoch":"2026-09-20T04:00:03.000096Z","epoch_age_seconds":92109,"freshness":"FRESH","line1":"1 52501U 22049BC  26263.16670139 -.00021367  00000+0 -62300-3 0  9996","line2":"2 52501  53.1599 245.6306 0001386  88.4732 304.4655 15.34400443  5867","mean_motion":15.34400443,"eccentricity":0.0001386,"inclination_deg":53.1599,"raan_deg":245.6306,"arg_perigee_deg":88.4732,"mean_anomaly_deg":304.4655,"bstar":-0.000623,"rev_number":586,"period_min":93.84773098635,"perigee_km":461.75378324326,"apogee_km":463.65006379286,"semimajor_km":6840.8389235181,"source":"CELESTRAK","updated_at":"2026-09-20T09:00:40.057259Z"}}}